Weather History for Glasgow, United Kingdom

Change the Weather History Date:

Sunday, October 14, 2012

  Actual Average Record
Temperature  
Mean Temperature 48 °F -  
Max Temperature 53 °F 50 °F 62 °F (2006)
Min Temperature 42 °F 40 °F 32 °F (2005)
Degree Days  
Heating Degree Days 18    
Moisture  
Dew Point 44 °F    
Average Humidity 90    
Maximum Humidity 100    
Minimum Humidity 67    
Precipitation  
Precipitation 0.00 in - - ()
Sea Level Pressure  
Sea Level Pressure 29.63 in    
Wind  
Wind Speed 4 mph ()    
Max Wind Speed 12 mph    
Max Gust Speed -    
Visibility 5.8 miles    
Events Rain    
Averages and records for this station are not official NWS values.
T = Trace of Precipitation, MM = Missing Value Source: Averaged Metar Reports

Daily Weather History Graph

Daily Weather History Graph

Search for Another Location

Airport:

Trip Planner

Search our weather history database for the weather conditions in past years. The results will help you decide how hot, cold, wet, or windy it might be!

Date:

Astronomy

Oct. 14, 2012 Rise Set
Actual Time 7:47 AM BST 6:18 PM BST
Civil Twilight 7:09 AM BST 6:56 PM BST
Nautical Twilight 6:27 AM BST 7:39 PM BST
Astronomical Twilight 5:43 AM BST 8:22 PM BST
Moon 6:24 AM BST (10/14) 5:30 PM BST (10/14)
Length of Visible Light 11h 46m
Length of Day
10h 31m
Waning Crescent, 2% of the Moon is Illuminated
Oct 14
Waning Crescent
Oct 15
New
Oct 22
First Quarter
Oct 29
Full
Nov 7
Last Quarter

Hourly Weather History & Observations

Time (BST) Temp. Windchill Dew Point Humidity Pressure Visibility Wind Dir Wind Speed Gust Speed Precip Events Conditions
12:20 AM 46.4 °F 44.3 °F 42.8 °F 87% 29.56 in 6.2 mi East 4.6 mph - N/A   Mostly Cloudy
12:50 AM 46.4 °F - 42.8 °F 87% 29.56 in 6.2 mi Variable 2.3 mph - N/A   Overcast
1:20 AM 46.4 °F 45.2 °F 42.8 °F 87% 29.56 in 6.2 mi SE 3.5 mph - N/A   Overcast
1:50 AM 46.4 °F 44.3 °F 42.8 °F 87% 29.56 in 4.3 mi ESE 4.6 mph - N/A Rain Light Rain
2:50 AM 46.4 °F 45.2 °F 44.6 °F 93% 29.56 in 4.3 mi Variable 3.5 mph - N/A Rain Light Rain
3:20 AM 44.6 °F 43.1 °F 44.6 °F 100% 29.56 in - ESE 3.5 mph - N/A   Light Drizzle
3:50 AM 44.6 °F 43.1 °F 44.6 °F 100% 29.59 in 6.2 mi East 3.5 mph - N/A Rain Light Rain
4:20 AM 44.6 °F 43.1 °F 44.6 °F 100% 29.59 in 6.2 mi NE 3.5 mph - N/A   Overcast
4:50 AM 44.6 °F - 44.6 °F 100% 29.59 in 2.5 mi NE 2.3 mph - N/A   Overcast
5:20 AM 44.6 °F - 44.6 °F 100% 29.59 in 6.2 mi Variable 2.3 mph - N/A   Mostly Cloudy
5:50 AM 44.6 °F 43.1 °F 44.6 °F 100% 29.59 in 6.2 mi NE 3.5 mph - N/A   Overcast
6:20 AM 44.6 °F 43.1 °F 44.6 °F 100% 29.59 in 5.0 mi NNE 3.5 mph - N/A   Mostly Cloudy
6:50 AM 44.6 °F - 44.6 °F 100% 29.59 in 5.0 mi North 2.3 mph - N/A   Mostly Cloudy
7:20 AM 44.6 °F - 44.6 °F 100% 29.59 in 6.2 mi Variable 2.3 mph - N/A   Mostly Cloudy
7:50 AM 44.6 °F 43.1 °F 44.6 °F 100% 29.62 in 5.6 mi NE 3.5 mph - N/A   Overcast
8:20 AM 46.4 °F - 44.6 °F 93% 29.62 in 5.0 mi ENE 2.3 mph - N/A Rain Light Rain
8:50 AM 46.4 °F 45.2 °F 44.6 °F 93% 29.62 in 5.0 mi ENE 3.5 mph - N/A Rain Light Rain
9:20 AM 46.4 °F 44.3 °F 44.6 °F 93% 29.62 in 5.6 mi East 4.6 mph - N/A   Mostly Cloudy
9:50 AM 46.4 °F 44.3 °F 44.6 °F 93% 29.65 in 5.6 mi ENE 4.6 mph - N/A   Overcast
10:20 AM 46.4 °F 43.5 °F 44.6 °F 93% 29.65 in 5.0 mi East 5.8 mph - N/A   Overcast
10:50 AM 46.4 °F 43.5 °F 44.6 °F 93% 29.65 in - East 5.8 mph - N/A   Light Drizzle
11:20 AM 46.4 °F 42.9 °F 46.4 °F 100% 29.65 in 6.2 mi NE 6.9 mph - N/A   Mostly Cloudy
11:50 AM 48.2 °F - 46.4 °F 93% 29.65 in 6.2 mi ENE 5.8 mph - N/A   Mostly Cloudy
12:20 PM 48.2 °F - 44.6 °F 87% 29.65 in 6.2 mi ENE 8.1 mph - N/A   Scattered Clouds
12:50 PM 50.0 °F - 44.6 °F 82% 29.65 in 6.2 mi ENE 6.9 mph - N/A   Scattered Clouds
1:20 PM 51.8 °F - 44.6 °F 76% 29.65 in 6.2 mi ENE 9.2 mph - N/A   Mostly Cloudy
1:50 PM 51.8 °F - 44.6 °F 76% 29.65 in 6.2 mi ENE 11.5 mph - N/A   Mostly Cloudy
2:20 PM 50.0 °F - 42.8 °F 76% 29.65 in 6.2 mi ENE 10.4 mph - N/A   Mostly Cloudy
2:50 PM 51.8 °F - 42.8 °F 71% 29.65 in 6.2 mi ENE 8.1 mph - N/A   Scattered Clouds
3:20 PM 51.8 °F - 42.8 °F 71% 29.65 in 6.2 mi ENE 6.9 mph - N/A   Scattered Clouds
3:50 PM 53.6 °F - 42.8 °F 67% 29.65 in 6.2 mi East 6.9 mph - N/A   Partly Cloudy
4:20 PM 48.2 °F - 44.6 °F 87% 29.65 in 6.2 mi North 4.6 mph - N/A Rain Light Rain
4:50 PM 48.2 °F - 42.8 °F 82% 29.65 in 6.2 mi ENE 9.2 mph - N/A Rain Light Rain Showers
5:20 PM 48.2 °F - 42.8 °F 82% 29.65 in 6.2 mi ENE 6.9 mph - N/A   Mostly Cloudy
5:50 PM 48.2 °F - 42.8 °F 82% 29.68 in 6.2 mi North 3.5 mph - N/A   Mostly Cloudy
6:20 PM 46.4 °F 44.3 °F 42.8 °F 87% 29.68 in 6.2 mi ENE 4.6 mph - N/A   Mostly Cloudy
6:50 PM 46.4 °F 44.3 °F 42.8 °F 87% 29.68 in 6.2 mi East 4.6 mph - N/A   Scattered Clouds
7:20 PM 44.6 °F 42.2 °F 41.0 °F 87% 29.68 in 6.2 mi NE 4.6 mph - N/A   Scattered Clouds
7:50 PM 44.6 °F - 41.0 °F 87% 29.65 in 6.2 mi NNE 2.3 mph - N/A   Scattered Clouds
8:20 PM 44.6 °F - 42.8 °F 93% 29.65 in 6.2 mi North 2.3 mph - N/A   Scattered Clouds
8:50 PM 44.6 °F 42.2 °F 41.0 °F 87% 29.65 in 6.2 mi NNE 4.6 mph - N/A Rain Light Rain
9:20 PM 44.6 °F - 41.0 °F 87% 29.65 in 5.6 mi Variable 2.3 mph - N/A Rain Light Rain
9:50 PM 44.6 °F 43.1 °F 41.0 °F 87% 29.65 in 6.2 mi Variable 3.5 mph - N/A Rain Light Rain
10:20 PM 44.6 °F - 42.8 °F 93% 29.65 in 6.2 mi Variable 2.3 mph - N/A Rain Light Rain
10:50 PM 42.8 °F 41.1 °F 41.0 °F 93% 29.65 in 6.2 mi WNW 3.5 mph - N/A   Mostly Cloudy
11:20 PM 42.8 °F 41.1 °F 42.8 °F 100% 29.62 in 6.2 mi NW 3.5 mph - N/A   Mostly Cloudy
11:50 PM 42.8 °F - 42.8 °F 100% 29.62 in 6.2 mi Variable 2.3 mph - N/A Rain Light Rain